Regional Weather Roundup
Issued by NWS

Home | Current Version | Previous Version | Graphics & Text | Print | Product List | Glossary On
Versions: 1 2 3 4 5 6 7 8 9 10 11 12 13 14 15 16 17 18 19 20 21 22 23 24 25 26 27 28 29 30 31 32 33 34 35 36 37 38 39 40 41 42 43 44 45 46 47 48 49 50
000
ASUS43 KIND 160259
RWRIN

WEATHER ROUNDUP FOR INDIANA
NATIONAL WEATHER SERVICE INDIANAPOLIS IN
1000 PM EST MON JAN 15 2018

NOTE: "FAIR" INDICATES FEW OR NO CLOUDS BELOW 12,000 FEET WITH NO
SIGNIFICANT WEATHER AND/OR OBSTRUCTIONS TO VISIBILITY.

* - STATION DOES NOT REPORT WEATHER SUCH AS PRECIPITATION OR FOG.

+ - STATION NOT QUALITY CONTROLLED BY THE NATIONAL WEATHER SERVICE.
    USE DATA WITH CAUTION...ESPECIALLY DEWPOINT AND RELATIVE
    HUMIDITY OBSERVATIONS.

INZ001>003-010>013-019-020-160400-
NORTHWEST INDIANA

CITY           SKY/WX    TMP DP  RH WIND       PRES   REMARKS
KNOX *+        CLOUDY     9   5  85 SW15      30.34R WCI  -8
MONTICELLO +   CLOUDY     7   0  74 W15G22    30.38S WCI -11

$$

LMZ046-743>745-160400-
SOUTHERN LAKE MICHIGAN

STATION/POSITION TIME  TEMP    WIND        PRES    WAVE
                       AIR SEA DIR/SP/G            HT
                 (UTC) (F)     (DEG/KT/KT) (MB)    (FT)
BURNS HARBOR     0240   11     220/ 12/ 17 1027.1R
MICHIGAN CITY    0230          200/ 16/ 18   N/A

$$

INZ004-005-014>016-021>024-160400-
NORTH CENTRAL INDIANA

CITY           SKY/WX    TMP DP  RH WIND       PRES   REMARKS
GOSHEN         CLOUDY    12   5  73 W16       30.31R WCI  -5
SOUTH BEND     CLOUDY    11   6  81 SW14      30.31R WCI  -5

$$

INZ006>009-017-018-025>027-160400-
NORTHEAST INDIANA

CITY           SKY/WX    TMP DP  RH WIND       PRES   REMARKS
FORT WAYNE     FAIR       9   4  80 W14       30.33R WCI  -7
KENDALLVILLE + LGT SNOW  14  10  86 W12       30.28R WCI   0

$$

INZ028-029-035-036-043>045-051>053-160400-
WEST CENTRAL INDIANA

CITY           SKY/WX    TMP DP  RH WIND       PRES   REMARKS
GREENCASTLE +  CLOUDY     9   0  66 W13G21    30.43R WCI  -7
LAFAYETTE      CLOUDY     7   1  76 W15       30.42R WCI -10
TERRE HAUTE    CLOUDY     8  -1  66 NW12      30.48R WCI  -7

$$

INZ030>032-037>040-046>048-054>057-064-065-160400-
CENTRAL INDIANA

CITY           SKY/WX    TMP DP  RH WIND       PRES   REMARKS
COLUMBUS       CLEAR     12   5  73 NW9       30.43R WCI   0
GREENWOOD *+   FAIR      12   5  74 W9G16     30.41R WCI  -1
INDIANAPOLIS   MOCLDY     8   2  76 W15       30.41R WCI  -9
-EAGLE CREEK   FAIR       8   0  69 W12       30.40R WCI  -7
MT COMFORT *+  CLOUDY     9   7  92 W16       30.38S WCI  -9
SHELBYVILLE    FAIR      12   3  67 W14       30.40R WCI  -3

$$

INZ033-034-041-042-049-050-058-059-160400-
EAST CENTRAL INDIANA

CITY           SKY/WX    TMP DP  RH WIND       PRES   REMARKS
MUNCIE         CLOUDY    11   4  73 W13       30.35R WCI  -4
RICHMOND +     LGT SNOW  19  18  93 W12G21    30.32R WCI   7

$$

INZ060-061-067>069-081>083-085>088-160400-
SOUTHWEST INDIANA

CITY           SKY/WX    TMP DP  RH WIND       PRES   REMARKS
EVANSVILLE     CLOUDY    17   8  67 NW3       30.50R
HUNTINGBURG +  CLOUDY    16   9  74 NW6       30.49R WCI   7

$$

INZ062-063-066-070>080-084-089>092-160400-
SOUTH CENTRAL AND SOUTHEAST INDIANA

CITY           SKY/WX    TMP DP  RH WIND       PRES   REMARKS
BLOOMINGTON    FAIR      12   4  70 W12       30.42R WCI  -2
MADISON *+     CLOUDY    19  12  73 W9        30.42R WCI   9

$$





USA.gov is the U.S. government's official web portal to all federal, state and local government web resources and services.